Molniya-1

operational
NORAD ID: 22671 Int'l Des: 1993-035 Owner: VKS Country: RU
MEOELLIPTICALHEO_ELLIPTICALMOLNIYA_TYPE

Molniya-1について

説明を読み込み中...

リアルタイム位置

3D地球を読み込み中...

次回通過

高度履歴

Altitude vs Time

uPlot chart will show altitude changes over time

軌道要素

1 22671U 93035A 26062.06479530 .00001729 00000-0 70352-3 0 9997
2 22671 62.9089 160.0398 4935905 31.3823 350.4448 5.65085835428632
Epoch: Mar 3, 2026 • Age: 18 hours

現在のステータス

高度 5544.2 km
速度 6.08 km/s
衛星直下点 -60.18°S, 24.39°E
打ち上げ日 May 26, 1993
運用期間 32.7 years
タイプ other

技術仕様

分類 Payload
質量 1670.00 kg
乾燥質量 1620.00 kg
総質量 1670.00 kg
長さ 4.40 m
直径 1.40 m
スパン 8.60 m
形状 Cyl + 6 Pan
製造者 NPOPM
バスタイプ Molniya-1T
フェーズステータス In Orbit
所有者/国 VKS/RU

大規模コンステレーション

Loading constellations...